{"data":{"norad_id":60327,"intl_designator":"2024-135A","name":"HULIANWAN GAOGUI-02 (H*)","alt_names":[],"object_type":"PAYLOAD","status":"ACTIVE","operator":null,"country":"PRC","launch_date":"2024-08-01","launch_site_code":"XICLF","launch_vehicle":null,"mission":null,"orbit_class":"UNKNOWN","rcs_meters":null,"size_class":null,"mass_kg":null,"dimensions":null,"purposes":["comms"],"wikipedia_slug":null,"has_3d_model":false,"image_url":null,"decayed_at":null,"tle_current":{"epoch":"2026-09-19T05:43:09.995232Z","epoch_age_seconds":131036,"freshness":"FRESH","line1":"1 60327U 24135A   26262.23831013 -.00000177  00000+0  00000+0 0  9996","line2":"2 60327   0.0631 346.9791 0004345   8.3784 241.6814  1.00272962  8435","mean_motion":1.00272962,"eccentricity":0.0004345,"inclination_deg":0.0631,"raan_deg":346.9791,"arg_perigee_deg":8.3784,"mean_anomaly_deg":241.6814,"bstar":0,"rev_number":843,"period_min":1436.0800471816,"perigee_km":35767.944575919,"apogee_km":35804.585441265,"semimajor_km":42164.402008592,"source":"CELESTRAK","updated_at":"2026-09-20T09:00:35.338370Z"}}}